Wind_Speed
39 37 33 31 30 28 26 25 24 25 24 21 17 14 12 11 10 9 7 4 2 3 5 6 7 8 8 9 10 10 10 10 10 11 12 13 14 16 18 20 21 22 23 23 23 23 23 23 24 23 23 23 22 21 20 19 18 18 18 17 17 16 16
41 39 35 32 30 29 28 28 27 28 27 25 21 17 15 14 13 11 10 7 4 4 4 4 5 7 8 8 8 9 9 9 9 9 10 10 11 12 13 16 18 19 20 21 22 22 22 22 22 23 23 23 23 22 21 21 20 19 19 18 18 18 17
43 41 37 35 33 30 29 29 28 28 28 26 24 21 17 16 15 14 12 10 7 6 5 4 4 4 5 6 7 8 8 8 8 8 8 8 9 9 10 12 14 15 17 18 19 20 20 21 21 21 21 21 21 22 21 21 21 20 20 19 19 19 18
44 44 41 38 37 34 32 31 30 28 28 27 25 24 21 18 18 17 15 12 10 8 6 5 4 3 3 4 5 5 6 7 7 6 6 6 6 7 7 8 10 12 13 14 15 16 17 18 18 18 19 19 19 19 20 20 20 20 20 19 19 19 18
45 44 44 41 39 38 35 34 32 31 30 29 28 27 25 22 21 19 17 15 13 11 8 7 6 4 1 2 3 3 4 5 6 5 5 4 4 5 5 6 7 8 10 11 11 12 13 14 15 15 16 16 16 16 17 17 18 18 18 18 18 18 18
49 46 46 44 42 42 40 37 35 33 32 31 30 30 29 27 25 22 20 18 16 14 11 9 8 6 4 2 2 3 4 5 5 6 5 3 3 3 3 4 4 4 6 7 7 8 8 9 10 11 12 13 13 14 14 14 15 15 16 16 16 16 16
54 50 49 48 46 44 43 41 39 37 35 34 33 33 32 31 28 25 23 21 19 17 15 13 11 10 8 7 5 4 5 5 5 6 6 5 3 3 2 2 2 1 1 2 3 4 4 5 6 7 8 9 10 11 11 12 12 12 12 13 13 13 14
55 53 52 51 50 47 46 44 42 40 39 38 37 35 34 32 30 27 25 23 21 19 17 16 15 14 13 12 10 8 7 7 6 6 6 6 5 4 3 3 3 3 2 2 2 2 2 2 2 3 4 5 6 7 8 9 9 9 9 9 9 10 10
57 55 54 54 52 51 49 47 45 43 42 41 40 38 36 33 30 28 27 25 24 23 21 19 19 18 17 16 15 13 11 9 9 9 8 7 7 6 5 4 5 5 5 5 4 3 3 2 1 0 1 2 3 4 5 6 6 6 6 6 6 6 6
62 57 56 56 55 53 53 51 48 47 47 46 44 42 40 36 31 28 28 28 27 26 24 23 23 24 22 20 19 18 15 13 12 12 11 9 9 8 7 6 6 7 6 6 6 5 5 4 3 2 1 1 1 1 2 3 4 4 4 3 2 2 2
69 64 60 58 56 55 56 55 52 50 50 50 49 47 44 40 34 30 30 31 31 29 27 25 26 27 27 25 23 21 19 17 15 14 13 12 11 10 9 9 9 8 7 7 7 7 6 6 4 3 2 2 2 2 2 2 2 2 2 2 1 0 1
75 72 67 63 59 57 58 59 57 54 53 53 52 51 50 46 40 36 34 34 34 33 30 27 26 27 28 28 26 24 22 20 19 17 16 14 13 13 11 11 11 10 9 9 8 8 7 7 5 5 4 3 4 4 4 3 3 2 2 1 0 1 2
78 77 75 71 67 63 61 61 62 60 58 56 54 54 54 51 46 41 38 38 37 36 33 29 26 26 27 29 28 26 25 23 22 21 19 18 17 16 14 13 13 13 12 11 10 10 9 9 7 6 5 5 5 6 6 6 6 5 4 3 2 2 3
80 79 79 77 75 71 68 66 65 64 62 59 57 55 55 53 48 42 40 41 40 38 35 32 30 29 29 29 30 30 29 27 25 24 22 21 20 20 19 17 16 16 16 15 14 13 12 11 10 8 6 6 6 7 7 7 8 8 8 7 6 4 3
82 81 80 80 79 77 74 72 70 68 66 64 62 59 57 54 51 45 42 42 42 40 37 35 34 33 31 30 29 30 31 30 28 26 24 24 24 23 23 22 20 19 20 19 19 18 16 14 14 12 9 7 7 8 8 9 9 9 9 8 7 6 5
84 82 81 81 81 80 78 75 74 72 70 68 66 64 61 59 57 53 48 44 43 42 41 39 38 36 34 32 29 29 31 31 30 28 27 27 28 27 27 26 24 23 23 23 23 22 21 19 17 15 13 12 11 11 11 11 11 10 10 8 7 7 7
86 84 82 81 82 82 81 79 77 75 74 72 70 69 67 65 63 61 57 52 50 48 46 44 42 39 37 36 34 32 31 31 31 30 29 31 32 31 31 31 29 28 27 27 27 26 25 24 21 19 16 16 16 15 14 14 13 12 11 10 8 7 7
89 87 85 83 83 83 84 83 81 78 76 75 73 72 71 69 67 65 63 60 58 56 54 50 47 44 41 40 39 37 35 34 33 32 33 34 35 35 35 35 34 32 31 31 30 29 29 28 27 23 21 20 19 19 19 18 15 14 14 13 12 10 9
92 90 88 87 85 84 85 84 84 82 80 78 76 75 74 72 71 69 67 64 62 60 58 55 51 48 46 44 42 41 39 38 36 35 36 37 37 36 37 37 36 35 34 33 33 32 32 32 30 27 25 23 23 23 23 20 18 17 17 16 16 15 14
92 92 91 90 89 87 86 85 85 84 83 82 80 78 77 75 73 72 70 67 65 63 61 58 55 53 51 47 44 43 42 40 39 38 38 38 37 37 37 37 38 38 36 35 35 35 35 34 32 30 28 27 27 27 26 23 21 21 19 19 19 19 19
90 91 92 92 92 90 88 87 86 85 84 84 83 82 81 80 78 76 74 71 68 65 63 62 59 57 54 50 47 46 45 43 41 41 40 39 37 37 36 36 37 38 36 37 39 39 36 35 34 32 31 30 30 31 29 27 26 25 24 23 22 22 22
88 89 91 92 93 93 91 90 88 86 85 84 83 83 83 83 83 81 79 76 72 69 66 65 61 58 55 53 52 50 48 46 44 45 44 41 38 36 35 35 37 38 36 38 40 39 36 37 37 35 34 33 33 33 31 30 30 30 29 28 27 26 25
89 89 89 90 91 92 92 91 90 89 88 86 84 83 83 83 84 84 83 81 77 73 70 66 61 56 53 52 52 52 52 49 48 48 47 43 40 39 37 37 39 40 39 40 40 38 36 37 38 36 35 35 36 35 34 33 32 33 33 33 31 30 28
91 90 89 89 89 89 89 90 90 90 90 88 87 85 84 83 83 84 84 82 80 77 72 67 63 60 54 51 52 55 55 52 51 51 49 45 44 44 42 40 39 39 41 42 43 41 40 41 41 39 37 37 38 38 37 35 35 36 36 36 35 34 33
92 91 90 89 88 87 87 88 88 89 90 90 89 88 87 85 85 84 83 82 81 79 75 70 68 65 60 56 57 57 56 53 53 53 50 47 47 46 43 42 41 42 44 45 46 45 44 44 44 43 41 41 41 41 40 38 38 38 39 39 39 37 37
91 90 90 89 88 88 87 87 87 87 88 89 89 89 88 88 87 86 85 83 81 79 77 74 71 67 63 61 61 60 58 56 56 55 52 51 50 48 45 47 49 50 51 50 49 50 49 48 47 45 44 45 45 45 44 43 42 42 42 42 42 41 40
90 89 89 89 89 89 89 88 87 87 86 87 87 88 89 88 88 87 86 85 83 81 79 76 73 71 67 65 64 63 62 60 58 57 56 56 56 54 52 53 55 56 56 54 53 54 54 52 51 49 47 47 47 47 48 47 46 45 45 45 45 44 43
88 88 88 89 90 90 90 91 90 89 88 86 86 86 87 87 88 88 87 86 84 83 81 78 76 73 70 68 68 67 64 62 61 59 59 60 60 59 57 57 57 57 58 57 56 56 56 55 55 54 52 51 50 49 50 49 49 48 48 47 47 47 46
86 84 84 88 91 92 93 93 94 93 92 90 88 87 86 86 86 87 87 87 85 84 82 80 78 76 72 71 71 70 67 66 64 63 63 63 63 63 62 61 61 60 60 59 58 57 57 59 59 58 57 56 55 53 52 51 51 51 50 49 49 48 48
88 85 83 85 89 93 95 95 95 96 95 93 92 90 88 87 86 86 86 86 86 86 84 82 81 78 76 75 74 73 71 70 70 69 68 66 65 66 67 66 66 66 65 64 63 62 62 62 61 59 60 61 60 59 57 55 53 53 53 53 52 51 50
90 90 88 86 86 90 95 96 96 96 96 96 95 93 92 90 89 87 86 86 86 86 86 85 83 81 80 78 77 76 75 74 74 75 75 72 70 70 69 68 68 68 68 68 68 67 67 67 64 62 62 63 64 63 62 59 57 57 57 58 57 55 53
92 92 91 90 89 91 93 94 95 96 96 96 96 95 95 94 92 90 89 87 87 86 86 86 86 85 83 82 81 80 79 78 77 78 79 79 77 75 73 71 70 71 71 71 70 70 70 70 69 67 67 67 67 66 65 63 61 61 61 62 63 62 60
94 95 94 93 91 91 92 94 95 96 96 97 97 97 96 96 95 94 92 91 89 88 87 87 87 87 86 86 85 84 83 82 82 82 82 83 83 82 80 76 74 75 75 75 74 74 74 74 73 73 72 71 70 69 68 67 65 65 65 67 68 68 67
95 96 97 97 94 93 94 96 96 96 95 95 97 98 97 96 95 95 94 93 92 91 89 88 88 88 88 88 88 88 87 87 86 86 86 86 87 87 87 85 82 81 79 77 76 76 77 77 77 77 77 76 76 75 74 72 71 71 72 73 73 73 72
97 97 99 99 97 95 96 98 99 99 97 95 93 94 96 97 97 96 95 94 94 94 93 91 90 90 89 89 90 90 90 90 90 90 90 90 90 90 90 90 89 88 86 83 80 78 78 78 78 79 79 80 81 81 81 81 79 79 79 78 77 77 76
95 97 100 103 102 99 98 99 100 102 101 99 96 93 92 94 97 98 97 97 96 95 95 95 94 93 92 91 91 92 92 92 92 92 92 92 93 92 92 92 92 92 91 89 85 81 80 79 79 80 80 81 83 84 84 85 85 84 84 83 82 81 81
90 92 96 102 106 105 103 101 101 101 102 103 102 99 95 93 94 96 98 99 99 98 98 98 98 97 97 95 94 94 94 94 94 94 94 94 94 94 94 94 94 94 94 93 90 86 84 84 83 83 82 82 82 84 85 85 84 84 84 85 84 83 84
92 90 92 96 101 104 106 106 104 103 103 103 103 103 101 98 96 95 95 97 99 100 101 101 100 100 100 99 99 98 97 96 96 97 97 97 96 96 96 97 97 96 97 97 95 93 90 89 88 87 87 84 81 80 81 82 82 82 82 83 84 84 84
Wind_Direction
212 218 224 228 229 227 226 225 218 206 205 211 211 206 204 204 205 202 196 185 161 120 93 83 79 75 69 61 60 62 62 56 52 54 55 54 55 58 62 64 63 63 65 66 67 68 69 69 70 70 71 71 72 73 74 74 75 77 77 78 77 77 76
215 217 221 225 226 225 223 222 219 213 211 213 214 209 208 210 210 208 201 194 192 175 135 105 90 83 76 64 58 59 59 53 48 48 51 54 55 55 59 65 66 65 65 65 67 68 69 70 70 70 70 71 72 73 73 74 75 76 77 78 78 79 78
215 216 218 220 222 222 221 221 220 218 215 214 216 214 212 215 216 215 209 201 201 199 179 145 116 99 85 72 59 54 55 54 48 44 44 47 51 53 55 61 67 68 67 67 66 68 69 70 70 71 71 71 72 72 73 73 74 75 76 77 78 79 79
213 214 216 217 220 221 219 219 217 214 213 214 216 214 212 215 220 221 216 211 210 211 201 180 162 139 98 73 59 46 40 41 43 42 41 41 41 47 50 56 65 69 69 69 68 68 70 71 71 72 72 72 72 73 73 73 73 73 74 75 76 77 77
215 214 215 215 218 219 217 217 216 214 212 212 214 214 212 215 220 223 223 223 223 221 214 202 195 194 168 56 38 26 17 16 20 20 28 33 30 34 42 47 58 67 69 70 70 69 70 73 74 74 74 74 74 74 74 74 73 72 71 71 71 72 72
221 216 216 215 215 218 217 217 217 216 214 213 214 214 214 216 220 222 226 230 231 232 230 224 218 221 232 266 320 336 338 345 351 349 351 1 7 15 26 32 41 58 67 71 74 73 72 74 77 79 79 79 77 76 75 74 74 73 71 69 68 67 67
225 220 218 216 214 216 217 218 218 217 217 216 216 216 216 217 218 219 222 226 229 232 237 241 239 237 241 252 269 286 300 310 320 323 326 328 334 343 349 350 351 11 73 84 86 85 82 77 76 81 85 85 84 81 79 76 74 73 71 69 68 66 65
222 223 220 217 215 215 215 217 217 218 220 220 219 218 218 219 219 219 220 222 224 226 232 240 245 244 244 248 256 261 268 280 287 291 296 301 304 313 315 301 288 275 243 210 175 144 126 103 83 82 88 90 91 90 87 83 79 76 72 69 68 67 65
217 221 221 219 216 215 214 214 215 218 221 222 221 219 218 218 219 220 221 222 224 225 228 235 243 246 244 245 248 250 251 258 265 268 271 275 280 285 291 284 273 266 253 235 220 215 215 209 221 249 90 98 100 101 102 96 92 87 82 75 71 69 66
215 216 219 219 217 215 213 213 215 219 222 223 221 219 217 217 219 222 222 223 224 226 231 238 244 246 244 243 244 245 244 247 253 257 258 262 268 273 274 274 271 267 259 247 235 232 235 233 234 245 258 240 183 141 132 123 115 109 104 95 84 74 72
218 215 215 217 217 215 212 212 215 219 221 222 221 219 218 219 222 225 225 227 228 229 236 245 249 248 244 242 244 246 245 246 252 255 256 258 263 268 268 269 272 270 259 252 247 240 239 243 245 244 247 252 256 250 223 183 151 140 132 125 113 340 309
222 219 216 215 215 215 214 213 214 216 218 220 220 220 221 222 225 228 228 230 231 233 240 250 254 252 247 243 243 247 249 250 254 256 256 256 257 258 260 265 271 268 254 248 251 249 243 241 244 247 250 255 260 263 259 251 237 217 196 185 249 318 322
224 222 221 218 216 216 216 215 216 216 217 219 221 222 223 225 228 231 232 233 234 236 242 248 251 252 250 244 240 242 246 249 253 255 257 258 257 255 253 256 262 262 253 245 246 250 250 243 238 239 244 253 257 261 263 263 260 258 253 250 255 286 322
226 225 224 223 222 221 220 219 219 218 218 220 223 225 225 226 230 234 236 236 236 237 241 244 244 246 248 245 240 237 239 243 247 250 254 259 260 259 258 257 257 256 255 250 246 245 247 247 244 240 238 248 255 257 262 264 266 266 263 261 257 252 262
228 226 225 225 226 226 224 223 222 221 220 221 224 226 226 227 230 232 233 235 237 237 239 242 243 244 247 248 243 238 237 241 245 247 250 254 257 257 258 257 256 256 256 255 251 247 244 245 250 249 245 248 256 258 261 264 268 274 276 279 280 271 258
229 228 227 226 227 228 228 227 226 224 223 224 225 227 227 229 233 234 232 233 235 237 239 242 244 244 245 248 246 240 238 240 242 244 248 252 253 253 253 252 254 259 261 257 252 250 247 246 249 253 252 253 257 261 261 261 265 277 284 288 296 295 286
229 229 229 228 227 229 230 229 229 228 227 227 228 229 230 232 234 236 235 234 236 238 239 242 244 244 243 245 246 244 240 239 238 240 244 249 250 251 250 250 254 261 264 261 254 250 249 248 247 248 248 249 252 256 257 257 260 270 276 276 280 292 300
229 229 230 230 229 229 230 231 231 231 230 230 231 232 234 234 235 237 238 238 238 239 241 244 246 245 243 243 245 245 243 241 239 241 245 247 247 249 250 251 255 260 264 261 256 251 249 249 249 248 246 245 247 250 252 253 256 263 268 269 269 274 285
229 229 230 230 230 230 230 230 231 232 233 233 233 235 236 237 238 238 239 240 241 242 244 246 247 246 244 243 244 246 246 244 243 246 249 249 248 249 250 252 255 259 260 259 255 252 249 248 248 250 249 250 252 253 253 253 253 256 262 267 268 269 274
231 230 230 230 231 231 231 231 231 233 234 234 235 236 238 239 240 241 242 242 243 243 245 247 247 247 246 245 245 246 247 247 246 248 252 252 251 250 249 250 253 256 257 254 251 251 251 248 248 250 251 254 256 258 259 258 254 251 253 259 265 266 268
232 232 231 231 232 232 232 232 232 232 233 234 235 237 238 239 240 242 243 244 244 244 245 247 248 249 249 248 246 245 246 247 249 250 251 251 249 247 246 248 252 255 254 249 247 249 251 250 249 250 251 253 254 256 260 262 259 254 251 252 256 258 261
233 233 233 233 233 233 233 233 233 233 233 234 235 236 237 238 239 241 242 244 245 245 246 247 249 251 252 250 248 246 246 248 250 251 250 247 244 242 243 245 250 253 250 245 246 249 249 249 249 249 250 252 254 255 257 258 259 257 255 255 255 255 256
233 234 234 234 234 234 234 234 235 235 235 235 235 235 236 237 238 239 240 242 244 245 246 248 248 248 249 248 247 247 248 249 250 249 246 242 240 240 241 243 248 251 248 244 244 245 245 246 247 247 248 251 254 256 256 256 256 256 255 257 258 258 258
233 234 234 235 235 235 235 235 236 236 236 236 236 236 236 236 237 238 239 241 242 244 246 246 245 243 243 243 243 244 246 248 247 244 239 237 238 239 240 240 243 246 244 242 242 243 243 245 247 247 247 250 253 255 255 255 255 255 253 254 256 259 260
234 235 235 236 236 236 236 236 236 237 237 237 237 237 237 237 237 238 238 239 240 242 244 244 244 243 241 239 239 240 241 243 243 239 234 234 237 237 235 234 235 238 242 243 242 242 243 244 246 247 248 248 249 251 252 252 253 254 253 251 252 254 258
235 236 236 237 237 237 238 237 237 237 238 238 238 238 238 238 238 238 239 239 239 240 241 242 243 243 240 240 240 240 240 241 239 235 232 231 232 230 227 229 233 237 243 244 242 241 242 243 245 246 247 247 247 247 249 251 251 252 251 250 249 250 252
235 236 237 237 238 238 238 238 238 238 238 239 239 239 239 239 239 239 239 239 239 239 240 241 242 242 241 241 241 239 239 239 236 234 232 231 229 228 228 231 234 238 241 242 240 240 241 243 244 245 246 248 248 247 249 250 250 249 249 249 249 249 249
236 237 237 237 237 238 238 238 238 238 237 238 238 239 239 239 239 239 240 240 240 240 240 240 240 240 240 240 239 238 236 234 232 232 233 232 230 229 230 232 235 238 240 239 239 241 244 244 245 245 245 246 246 246 246 248 249 248 248 248 249 249 249
236 237 237 237 237 237 237 237 237 237 237 236 237 237 238 238 239 239 240 240 240 240 240 239 239 239 238 238 238 237 235 232 230 230 231 231 231 231 232 234 236 238 239 238 238 242 246 247 246 245 244 245 245 245 245 246 247 248 249 250 250 250 250
236 235 236 237 237 236 236 236 237 237 237 236 236 236 236 237 238 239 239 239 239 239 239 239 238 238 237 236 236 236 234 232 230 229 229 231 232 234 235 237 238 239 240 240 240 243 245 246 246 246 246 245 245 246 246 246 246 248 250 252 252 250 250
236 236 236 237 238 238 237 236 236 237 237 237 236 236 236 236 236 237 238 238 239 239 238 238 238 237 236 235 235 235 234 232 231 231 231 231 232 234 236 237 238 239 239 240 241 242 243 243 244 245 245 245 245 245 246 246 246 249 252 254 253 251 250
236 237 237 237 238 241 241 240 238 237 237 237 237 236 236 236 236 236 237 237 238 238 238 237 237 236 235 235 234 234 234 233 232 232 233 233 234 234 235 235 236 236 238 239 239 240 241 241 242 243 244 245 245 245 245 246 248 251 255 256 255 253 251
235 236 237 237 237 239 242 242 241 239 238 238 238 237 237 237 237 237 237 237 237 238 238 238 237 236 235 235 234 234 234 233 233 233 234 235 236 236 235 235 236 236 237 238 239 240 240 241 241 243 244 245 246 246 246 247 248 250 254 256 256 254 253
233 234 235 236 236 237 239 242 242 242 240 239 239 239 238 238 238 238 238 238 238 238 238 239 238 237 236 235 235 234 234 234 234 234 234 235 236 237 237 238 238 238 238 238 239 241 242 242 243 244 245 246 246 247 247 247 248 251 253 255 256 255 254
232 233 234 235 235 236 238 240 241 242 241 240 239 239 239 238 238 237 237 238 238 238 238 239 239 239 238 237 236 235 235 235 234 234 235 235 236 237 238 238 239 240 240 239 240 241 242 244 245 246 246 247 248 248 249 250 250 252 253 254 255 255 254
233 234 235 235 235 235 236 238 241 242 242 241 240 238 238 238 238 237 236 236 236 237 237 238 238 238 238 238 237 236 236 235 235 235 235 235 236 236 237 238 239 239 240 240 240 240 241 243 245 246 247 248 248 249 249 250 250 251 252 253 254 254 253
230 232 235 236 236 236 235 237 239 241 243 242 241 239 238 238 238 237 237 236 235 235 235 236 236 237 237 237 237 237 236 236 235 235 235 235 235 236 236 237 238 238 239 239 239 239 240 242 244 245 245 246 247 247 248 248 248 249 250 251 252 252 252
225 228 232 235 237 237 236 235 236 238 240 241 241 240 239 239 238 238 238 237 237 236 236 235 236 236 236 237 237 237 237 236 236 236 235 235 235 235 235 236 236 237 238 239 239 239 240 242 243 243 243 242 243 244 245 246 247 248 248 249 250 250 250
Height
10999 11001 11003 11005 11007 11009 11010 11012 11014 11015 11016 11017 11018 11019 11020 11021 11022 11022 11023 11023 11024 11024 11023 11023 11023 11022 11022 11022 11021 11021 11021 11021 11021 11021 11020 11020 11020 11019 11018 11017 11017 11016 11015 11014 11013 11013 11012 11012 11011 11010 11010 11009 11009 11008 11008 11008 11007 11007 11006 11006 11006 11006 11005
10995 10998 11000 11002 11004 11006 11008 11009 11011 11013 11014 11015 11016 11017 11018 11019 11021 11021 11022 11022 11023 11023 11023 11023 11023 11023 11023 11023 11023 11022 11022 11022 11022 11021 11021 11021 11021 11021 11020 11019 11019 11018 11017 11017 11016 11015 11015 11014 11013 11013 11012 11012 11011 11011 11010 11010 11009 11009 11008 11008 11008 11007 11007
10990 10994 10996 10999 11001 11003 11005 11006 11009 11010 11011 11013 11014 11015 11016 11017 11019 11020 11021 11021 11022 11022 11023 11023 11023 11023 11023 11023 11023 11023 11023 11023 11023 11022 11022 11022 11022 11022 11022 11021 11020 11020 11019 11019 11018 11018 11017 11016 11016 11015 11015 11014 11014 11013 11013 11012 11012 11011 11011 11010 11010 11009 11008
10987 10990 10993 10996 10998 11000 11002 11003 11006 11007 11009 11010 11012 11013 11015 11016 11017 11018 11019 11020 11020 11021 11022 11022 11022 11023 11023 11023 11023 11024 11024 11024 11024 11023 11023 11023 11023 11023 11023 11022 11022 11021 11021 11020 11020 11020 11019 11018 11018 11017 11017 11016 11016 11015 11015 11014 11014 11013 11013 11012 11012 11011 11010
10984 10987 10989 10992 10994 10996 10998 11000 11002 11004 11006 11008 11009 11010 11012 11014 11015 11017 11018 11018 11019 11020 11021 11021 11022 11022 11023 11023 11023 11024 11024 11024 11024 11024 11024 11024 11024 11024 11024 11023 11023 11022 11021 11021 11021 11021 11020 11020 11019 11019 11018 11018 11017 11017 11016 11016 11015 11015 11014 11014 11013 11013 11012
10981 10983 10984 10987 10989 10991 10994 10997 10999 11001 11003 11005 11006 11008 11009 11011 11012 11014 11015 11016 11017 11019 11020 11020 11021 11022 11022 11022 11023 11023 11023 11024 11024 11024 11024 11024 11024 11024 11024 11024 11023 11022 11022 11021 11021 11021 11021 11021 11021 11020 11019 11019 11018 11018 11017 11017 11016 11016 11016 11015 11015 11014 11014
10976 10978 10980 10982 10984 10987 10990 10993 10996 10998 11000 11001 11003 11004 11006 11007 11009 11011 11013 11014 11015 11017 11018 11019 11020 11020 11021 11022 11022 11022 11023 11023 11024 11024 11024 11024 11024 11024 11024 11024 11024 11023 11022 11021 11021 11021 11021 11021 11021 11021 11020 11020 11019 11019 11018 11018 11017 11017 11017 11016 11016 11016 11015
10970 10973 10975 10978 10980 10983 10986 10989 10992 10994 10996 10997 10999 11001 11003 11005 11007 11008 11010 11012 11013 11014 11015 11016 11017 11018 11019 11020 11021 11021 11022 11022 11023 11023 11023 11024 11024 11024 11024 11023 11023 11023 11022 11021 11021 11021 11021 11021 11021 11021 11021 11020 11020 11020 11019 11019 11018 11018 11018 11017 11017 11016 11016
10965 10968 10970 10973 10976 10979 10982 10985 10988 10990 10992 10993 10995 10997 10999 11001 11003 11005 11007 11009 11010 11012 11013 11014 11014 11015 11016 11018 11019 11019 11020 11021 11021 11022 11022 11023 11023 11023 11023 11023 11023 11022 11022 11022 11021 11021 11021 11021 11021 11021 11021 11021 11020 11020 11019 11019 11019 11019 11018 11018 11018 11017 11017
10959 10963 10965 10968 10971 10975 10978 10981 10983 10985 10987 10989 10990 10993 10995 10997 10999 11002 11004 11005 11007 11009 11010 11011 11012 11012 11013 11014 11016 11017 11018 11019 11019 11020 11021 11022 11022 11022 11022 11022 11022 11022 11022 11022 11021 11021 11021 11021 11021 11021 11020 11020 11020 11019 11019 11019 11019 11018 11018 11018 11018 11017 11017
10952 10956 10959 10962 10966 10969 10972 10974 10976 10979 10982 10984 10986 10988 10990 10992 10994 10997 10999 11001 11003 11005 11006 11007 11009 11010 11011 11012 11013 11014 11016 11017 11017 11018 11019 11020 11021 11021 11022 11022 11022 11022 11022 11022 11021 11021 11021 11020 11020 11020 11020 11020 11020 11019 11019 11018 11018 11018 11018 11017 11017 11017 11016
10944 10948 10952 10955 10959 10963 10966 10968 10970 10973 10976 10978 10981 10982 10984 10987 10989 10992 10994 10996 10999 11001 11003 11005 11006 11007 11009 11010 11010 11011 11013 11014 11015 11016 11016 11018 11019 11019 11020 11021 11021 11021 11021 11021 11021 11021 11020 11020 11020 11020 11020 11020 11019 11019 11018 11018 11018 11017 11017 11017 11017 11016 11016
10936 10941 10945 10949 10953 10956 10959 10962 10964 10967 10970 10973 10975 10977 10981 10984 10986 10988 10990 10992 10995 10997 11000 11002 11003 11004 11006 11007 11008 11009 11010 11011 11013 11014 11014 11015 11016 11017 11018 11018 11019 11020 11020 11020 11020 11020 11020 11020 11019 11019 11019 11019 11019 11018 11018 11018 11017 11017 11017 11016 11016 11016 11016
10927 10933 10938 10941 10945 10949 10952 10955 10958 10961 10964 10968 10970 10973 10976 10980 10982 10984 10986 10988 10991 10994 10996 10998 10999 11000 11001 11003 11005 11006 11007 11008 11009 11011 11012 11013 11014 11015 11015 11016 11016 11017 11017 11018 11019 11019 11019 11019 11018 11018 11018 11018 11018 11017 11017 11017 11016 11016 11016 11015 11015 11015 11015
10918 10925 10930 10935 10939 10942 10945 10949 10952 10956 10959 10962 10965 10968 10971 10974 10976 10979 10981 10984 10987 10989 10991 10993 10994 10996 10998 11000 11002 11004 11005 11006 11007 11008 11009 11010 11011 11012 11013 11013 11014 11014 11014 11015 11016 11017 11017 11017 11017 11017 11017 11016 11016 11016 11016 11016 11015 11015 11015 11015 11014 11014 11014
10910 10917 10923 10928 10932 10935 10938 10942 10946 10949 10953 10956 10960 10963 10966 10968 10970 10972 10976 10979 10982 10984 10986 10988 10990 10993 10995 10997 10999 11001 11002 11004 11005 11006 11006 11007 11007 11009 11010 11010 11011 11011 11011 11012 11013 11014 11014 11014 11014 11015 11015 11015 11015 11014 11014 11014 11014 11014 11014 11014 11014 11014 11013
10903 10909 10915 10920 10924 10927 10931 10935 10939 10942 10946 10951 10954 10957 10959 10961 10963 10966 10969 10973 10976 10978 10980 10983 10986 10989 10991 10993 10995 10997 10998 11000 11002 11003 11003 11003 11003 11004 11006 11006 11007 11008 11009 11009 11010 11010 11011 11011 11012 11012 11012 11012 11013 11013 11012 11012 11012 11013 11013 11013 11013 11013 11013
10894 10900 10905 10911 10915 10919 10923 10927 10931 10936 10940 10944 10947 10950 10952 10954 10957 10959 10963 10966 10969 10972 10975 10979 10982 10984 10987 10989 10990 10992 10993 10995 10997 10999 11000 11000 11000 11001 11002 11003 11004 11005 11005 11006 11006 11007 11008 11008 11008 11009 11009 11009 11010 11010 11010 11010 11011 11011 11011 11011 11012 11012 11012
10885 10891 10896 10901 10905 10910 10914 10919 10924 10929 10933 10937 10940 10943 10945 10948 10950 10953 10956 10960 10964 10968 10971 10974 10977 10979 10981 10983 10986 10987 10989 10990 10992 10994 10995 10997 10998 10999 11000 11000 11000 11001 11001 11002 11003 11004 11004 11004 11005 11006 11006 11007 11007 11007 11007 11008 11008 11009 11009 11009 11010 11010 11010
10877 10883 10888 10892 10896 10900 10906 10911 10917 10921 10926 10930 10933 10935 10938 10941 10944 10947 10950 10954 10959 10962 10966 10968 10971 10972 10975 10978 10982 10983 10984 10986 10988 10989 10991 10993 10995 10995 10996 10996 10995 10995 10997 10998 10999 10999 11000 11001 11002 11003 11003 11004 11004 11004 11004 11006 11006 11006 11006 11007 11007 11008 11008
10868 10874 10878 10883 10887 10892 10897 10903 10909 10914 10918 10922 10925 10928 10931 10934 10937 10940 10943 10948 10952 10956 10959 10962 10965 10967 10970 10974 10977 10979 10980 10982 10983 10984 10986 10988 10990 10991 10991 10991 10990 10991 10992 10993 10993 10996 10998 10998 10999 11000 11000 11001 11001 11000 11002 11003 11003 11003 11003 11003 11004 11004 11005
10859 10864 10868 10873 10878 10883 10889 10895 10900 10905 10909 10913 10917 10921 10924 10926 10930 10933 10936 10941 10946 10950 10953 10956 10961 10964 10966 10969 10972 10974 10976 10977 10978 10979 10980 10982 10985 10986 10986 10986 10986 10986 10988 10988 10989 10992 10995 10995 10995 10996 10997 10997 10997 10997 10998 10999 11000 11000 11000 11000 11000 11000 11001
10850 10854 10859 10864 10869 10875 10881 10887 10891 10896 10900 10905 10909 10913 10916 10918 10921 10924 10929 10934 10938 10942 10946 10951 10957 10960 10961 10963 10967 10969 10970 10972 10974 10974 10974 10976 10978 10980 10982 10982 10982 10982 10983 10984 10984 10987 10989 10989 10990 10991 10992 10993 10992 10993 10994 10994 10995 10996 10996 10996 10996 10997 10997
10841 10845 10850 10856 10862 10868 10873 10878 10883 10887 10891 10895 10900 10903 10907 10910 10912 10915 10920 10926 10930 10934 10940 10944 10947 10951 10954 10957 10960 10961 10962 10966 10968 10967 10968 10970 10972 10974 10976 10976 10977 10978 10978 10979 10979 10981 10983 10984 10984 10986 10987 10988 10987 10988 10989 10990 10990 10991 10992 10992 10993 10993 10993
10833 10837 10842 10848 10854 10859 10864 10868 10872 10877 10881 10885 10889 10893 10897 10900 10903 10906 10911 10917 10922 10926 10931 10933 10935 10941 10946 10947 10949 10951 10954 10957 10959 10960 10962 10965 10966 10968 10970 10971 10972 10973 10973 10973 10974 10975 10976 10977 10978 10981 10982 10981 10981 10983 10984 10985 10985 10986 10987 10988 10989 10989 10990
10826 10830 10835 10840 10845 10849 10853 10857 10862 10866 10870 10874 10878 10883 10887 10890 10894 10897 10901 10907 10912 10917 10921 10924 10927 10932 10936 10938 10940 10944 10947 10950 10952 10954 10956 10958 10959 10962 10964 10964 10964 10965 10966 10966 10968 10968 10969 10970 10972 10975 10975 10974 10975 10977 10978 10979 10980 10981 10982 10983 10984 10985 10985
10819 10823 10826 10830 10834 10838 10841 10846 10850 10855 10859 10863 10868 10872 10876 10880 10884 10888 10891 10896 10902 10907 10911 10916 10919 10922 10927 10931 10932 10935 10939 10943 10945 10947 10949 10951 10953 10955 10956 10955 10955 10957 10958 10959 10960 10961 10962 10964 10966 10968 10968 10968 10969 10971 10972 10972 10974 10975 10976 10977 10978 10979 10980
10808 10813 10816 10819 10822 10824 10828 10832 10836 10841 10846 10851 10856 10861 10865 10870 10873 10877 10881 10886 10892 10897 10901 10906 10909 10913 10919 10922 10922 10925 10931 10935 10937 10939 10941 10942 10945 10948 10949 10948 10948 10951 10952 10953 10954 10955 10956 10957 10959 10961 10962 10962 10963 10964 10965 10966 10967 10968 10970 10972 10973 10974 10975
10796 10800 10801 10803 10807 10810 10813 10817 10821 10826 10832 10838 10844 10849 10854 10858 10862 10866 10871 10876 10881 10886 10890 10895 10899 10904 10909 10912 10913 10916 10922 10926 10928 10930 10931 10934 10937 10940 10941 10942 10942 10943 10945 10947 10949 10949 10949 10949 10950 10953 10955 10956 10956 10957 10958 10959 10960 10962 10963 10966 10967 10968 10969
10784 10786 10785 10788 10793 10796 10799 10804 10808 10813 10820 10826 10832 10837 10842 10847 10851 10855 10860 10865 10870 10875 10880 10884 10888 10894 10898 10901 10903 10907 10911 10916 10919 10921 10922 10925 10929 10931 10933 10935 10935 10936 10938 10940 10942 10943 10941 10940 10942 10946 10948 10948 10949 10950 10951 10953 10954 10955 10957 10959 10960 10962 10963
10772 10775 10776 10780 10782 10782 10785 10791 10797 10802 10808 10814 10820 10825 10830 10835 10840 10844 10848 10853 10858 10863 10868 10873 10877 10882 10887 10890 10893 10897 10901 10906 10910 10912 10913 10917 10920 10921 10924 10927 10928 10929 10930 10931 10934 10935 10933 10933 10936 10939 10939 10939 10940 10942 10944 10946 10947 10949 10951 10952 10954 10955 10956
10761 10765 10767 10770 10772 10772 10773 10779 10786 10792 10797 10802 10808 10814 10819 10824 10829 10833 10837 10841 10846 10851 10856 10861 10866 10871 10875 10879 10883 10887 10890 10895 10900 10902 10904 10908 10910 10912 10914 10918 10920 10920 10921 10922 10925 10926 10926 10927 10930 10931 10931 10931 10932 10934 10936 10938 10940 10942 10944 10946 10947 10948 10949
10749 10752 10754 10758 10762 10763 10762 10766 10772 10780 10786 10791 10796 10802 10808 10814 10819 10823 10827 10831 10835 10840 10844 10848 10854 10859 10864 10869 10872 10876 10879 10884 10889 10892 10894 10897 10900 10902 10905 10909 10911 10911 10912 10914 10916 10917 10917 10919 10921 10922 10923 10924 10925 10927 10929 10931 10932 10934 10936 10939 10940 10941 10941
10735 10739 10740 10744 10750 10753 10752 10753 10758 10766 10774 10780 10786 10792 10798 10804 10809 10814 10818 10821 10825 10829 10833 10837 10842 10847 10852 10857 10861 10864 10868 10872 10877 10881 10884 10886 10889 10891 10895 10898 10900 10902 10903 10905 10906 10907 10908 10909 10912 10914 10916 10917 10918 10919 10921 10923 10925 10926 10928 10930 10932 10933 10933
10722 10726 10727 10730 10737 10742 10741 10741 10744 10751 10759 10767 10774 10780 10786 10791 10796 10801 10806 10810 10814 10818 10822 10826 10829 10834 10839 10844 10848 10852 10856 10860 10864 10868 10871 10875 10877 10880 10884 10887 10889 10891 10893 10894 10896 10898 10899 10900 10902 10904 10907 10908 10910 10911 10913 10914 10916 10917 10918 10921 10923 10924 10925
10714 10717 10717 10718 10724 10729 10731 10731 10733 10738 10745 10753 10761 10767 10772 10777 10782 10786 10791 10796 10800 10804 10808 10812 10816 10820 10825 10830 10834 10839 10843 10847 10851 10854 10858 10862 10866 10869 10872 10876 10878 10880 10882 10884 10886 10888 10890 10892 10893 10894 10896 10898 10900 10901 10903 10904 10906 10908 10909 10910 10913 10915 10916
10703 10705 10705 10706 10709 10715 10720 10723 10724 10727 10732 10738 10746 10753 10759 10763 10768 10772 10777 10782 10786 10790 10794 10798 10802 10806 10810 10815 10820 10824 10829 10833 10837 10841 10845 10849 10853 10857 10861 10864 10867 10869 10871 10873 10875 10877 10879 10882 10884 10885 10886 10887 10888 10890 10892 10893 10896 10897 10899 10900 10902 10904 10905
10692 10695 10696 10695 10697 10701 10705 10709 10712 10715 10718 10723 10730 10737 10744 10750 10755 10759 10763 10768 10772 10777 10781 10785 10789 10793 10797 10801 10805 10810 10815 10819 10823 10828 10832 10836 10840 10845 10849 10852 10855 10858 10860 10862 10864 10866 10869 10871 10873 10875 10877 10877 10878 10879 10881 10882 10884 10886 10888 10889 10890 10892 10894